Theta_e
351 350 351 350 352 353 353 348 343 342 342 342 341 341 341 342 341 340 340 342 342 340 343 345 344 342 344 344 345 344 343 343 347 339 349 348 350 349 343 346 345 350 352
351 351 350 350 351 350 351 348 343 343 343 343 343 345 345 342 343 344 344 345 344 345 346 342 340 341 341 342 341 343 343 343 350 347 346 351 352 352 345 345 345 350 351
351 350 351 351 353 349 351 349 344 347 347 347 345 346 348 346 345 343 345 345 347 345 346 345 342 342 343 341 344 344 345 346 344 344 340 343 349 352 351 352 347 347 349
349 352 352 350 350 350 351 351 348 351 352 352 350 350 352 351 349 348 353 349 350 352 350 345 344 343 345 343 344 347 344 343 342 341 342 344 342 347 342 349 350 349 349
350 352 352 352 352 350 348 352 353 353 352 352 352 352 353 352 352 353 352 347 349 346 345 344 344 347 344 343 346 342 341 342 342 336 334 334 339 331 334 340 350 350 349
350 350 353 352 353 353 353 353 353 353 353 349 350 352 353 352 353 352 351 352 349 350 350 350 352 348 347 342 347 343 342 340 338 337 334 333 331 330 331 337 348 347 348
347 346 346 350 353 353 352 351 350 350 349 350 352 352 352 351 352 352 353 352 352 351 350 352 351 349 348 342 343 344 343 341 340 337 333 333 334 334 334 336 347 346 345
344 348 351 349 345 342 348 344 347 350 347 352 352 352 348 348 353 348 349 349 352 350 350 350 346 347 346 344 343 342 344 338 336 333 333 333 336 340 340 342 345 349 350
345 348 351 350 346 345 345 351 351 351 348 350 345 348 348 345 348 348 353 352 351 350 349 343 343 343 342 343 342 341 343 338 333 337 341 338 338 343 343 348 349 346 350
347 346 348 349 350 352 350 352 352 349 348 352 350 352 349 350 352 353 347 351 351 350 348 344 341 341 341 342 344 341 343 335 338 340 340 338 340 341 344 349 345 343 349
348 345 346 350 349 346 345 352 352 352 347 349 351 348 346 343 346 349 346 350 351 351 350 347 340 340 341 343 342 345 342 338 342 340 338 342 343 348 351 346 346 348 348
352 347 346 347 347 347 347 349 349 347 345 341 341 343 344 348 348 346 348 351 352 351 344 342 342 341 342 344 341 338 341 336 340 342 342 341 344 349 352 350 345 346 347
351 351 348 348 350 351 351 347 345 344 342 343 334 339 343 349 351 351 349 345 341 341 342 344 343 342 343 344 340 338 340 340 333 338 341 340 342 342 351 347 345 345 346
351 352 351 351 351 352 352 348 345 345 346 344 338 343 350 350 348 349 347 346 344 341 345 346 346 344 343 342 336 341 339 341 340 344 340 341 342 344 343 350 345 343 344
352 351 351 350 352 351 352 348 347 347 347 347 347 341 349 350 349 348 348 347 347 348 346 347 347 346 344 345 342 342 342 345 343 343 341 340 341 342 347 351 350 349 349
351 351 350 351 352 352 349 348 348 347 347 347 347 344 348 351 349 349 348 349 349 350 349 349 347 347 346 346 346 345 345 342 343 342 343 340 339 341 342 347 350 350 350
351 350 350 351 351 350 347 347 346 347 348 348 347 342 348 350 349 349 348 348 349 349 342 349 347 346 347 347 346 345 344 344 347 344 343 340 338 338 342 343 347 348 349
350 350 351 351 350 350 348 346 346 347 348 348 346 346 345 349 348 347 343 344 347 349 347 348 348 346 343 345 349 346 347 346 345 346 344 343 340 339 341 341 340 344 343
350 350 352 352 350 350 347 346 347 347 347 346 347 347 346 347 346 346 345 339 341 347 345 340 341 347 346 347 348 349 350 348 347 347 345 346 342 343 341 340 340 336 338
350 350 351 351 351 348 347 347 346 348 347 346 342 348 348 344 345 350 349 343 347 346 347 344 348 348 349 348 349 350 349 349 345 346 346 346 346 346 344 344 337 334 337
350 350 351 351 350 348 347 348 348 348 344 338 343 345 347 345 350 350 349 346 349 348 349 349 349 349 348 348 347 347 349 348 349 347 347 347 346 346 345 343 340 335 337
349 350 350 350 349 350 346 345 346 346 341 340 342 346 348 349 349 349 349 350 349 352 349 350 351 349 343 345 345 344 342 346 347 347 347 348 348 347 346 344 343 340 337
350 350 350 350 350 350 346 346 345 345 342 345 348 349 350 351 347 347 349 347 350 348 348 350 350 351 347 344 339 339 342 343 341 345 346 347 348 348 347 347 346 346 341
350 351 350 349 350 349 347 345 345 346 348 345 347 347 350 350 348 349 350 351 352 347 351 350 350 350 350 342 343 345 341 345 338 335 340 344 347 347 347 347 347 347 346
349 350 350 348 348 348 346 345 345 347 346 344 345 346 348 349 348 349 351 349 348 350 350 352 350 351 350 346 344 340 342 343 344 342 345 346 349 348 347 346 348 348 347
350 349 349 348 348 347 346 346 346 347 347 346 348 348 346 346 347 347 350 350 352 350 352 351 351 351 351 351 341 348 345 346 346 345 343 341 343 345 342 344 347 347 348
Wind_Speed
22 22 21 20 18 18 18 20 22 22 24 24 23 21 22 23 22 21 19 18 17 15 14 15 12 10 10 9 8 4 4 6 9 13 12 11 13 15 18 18 17 16 15
27 23 21 20 19 19 18 19 20 20 20 21 19 17 17 19 19 17 16 15 14 14 13 12 11 8 8 8 6 5 3 7 12 14 14 13 13 15 14 13 15 15 13
29 24 22 19 19 19 18 16 18 17 17 17 16 15 14 14 14 13 13 12 12 12 12 10 9 9 7 6 6 7 8 9 10 13 15 14 14 11 15 11 10 12 12
30 25 23 21 19 19 18 17 16 18 15 14 13 12 12 12 11 12 11 11 11 11 9 9 8 8 7 6 5 7 7 8 8 12 13 12 14 13 14 13 7 8 11
29 25 23 21 19 19 18 15 16 15 14 12 11 11 11 11 10 11 11 11 11 11 10 9 8 7 6 8 8 6 5 9 14 9 9 10 12 16 12 7 10 8 12
28 25 22 21 19 19 17 16 15 13 12 11 10 10 10 9 10 11 12 11 11 10 10 10 9 7 7 10 10 8 9 11 7 4 13 17 15 22 19 10 10 11 13
27 24 22 20 20 18 17 15 12 11 10 10 11 10 10 10 10 11 11 11 10 10 9 8 8 8 9 11 10 7 6 7 8 3 4 16 19 16 24 15 11 14 13
28 24 22 20 19 17 15 14 12 12 12 11 11 11 10 10 10 9 11 12 12 11 9 8 9 9 8 10 9 10 9 4 3 6 8 17 18 18 22 18 18 17 14
27 25 21 19 18 16 14 13 12 12 9 11 11 11 10 10 10 10 10 10 11 11 10 8 8 8 7 7 9 8 7 3 2 7 9 17 22 22 21 17 18 17 16
25 23 21 19 18 17 14 12 12 11 12 11 10 10 9 10 9 8 10 11 11 10 11 9 8 8 9 7 10 6 4 6 7 8 11 16 21 21 18 19 20 18 17
24 22 20 19 17 15 13 12 11 12 11 10 9 9 9 9 8 9 9 11 11 11 11 10 7 7 8 9 10 9 6 9 13 12 12 13 16 17 18 19 18 16 16
24 23 21 19 18 16 14 12 11 11 11 12 9 9 8 7 6 7 8 10 11 12 8 8 7 7 8 11 13 11 10 10 11 10 11 14 16 17 18 18 18 17 17
26 24 22 19 18 17 14 12 11 11 12 12 9 7 6 5 8 10 11 9 8 8 9 8 7 9 8 10 10 14 13 14 20 16 15 16 19 19 19 17 17 16 16
28 26 23 21 21 18 14 11 11 12 11 11 9 7 5 4 4 10 10 12 10 8 6 10 10 9 8 9 14 12 13 13 16 15 15 17 17 17 16 20 20 19 18
28 28 27 22 21 19 16 13 12 12 11 9 7 8 4 1 4 7 6 4 3 5 7 1 4 9 7 8 9 14 16 12 16 15 15 19 17 17 18 19 18 17 17
30 28 23 21 24 20 17 15 15 13 11 10 6 8 6 2 8 6 2 1 2 3 3 2 2 4 8 7 8 12 13 14 18 16 17 20 19 18 16 18 19 19 18
32 30 26 25 24 20 18 16 18 14 11 9 7 10 7 7 3 5 2 1 2 7 3 4 2 2 2 3 4 7 14 11 13 18 21 21 21 16 16 17 19 18 18
32 32 28 27 25 20 19 18 18 16 12 10 9 15 10 10 5 3 3 2 5 3 2 1 5 5 1 8 8 7 12 14 15 13 19 22 23 19 16 15 15 17 16
30 31 33 28 23 18 18 18 18 16 12 11 9 9 11 12 7 2 2 2 7 2 1 3 5 5 2 1 4 7 12 17 20 17 17 22 23 19 17 15 15 14 14
30 31 31 27 23 18 18 17 18 16 13 12 13 12 11 13 10 5 1 2 2 4 4 3 3 3 3 2 4 5 10 10 19 16 15 19 20 19 16 15 16 16 14
31 31 31 27 24 22 20 20 20 20 15 13 12 9 14 15 11 8 1 2 4 5 7 4 5 3 2 3 3 2 5 8 14 16 16 19 19 21 16 17 18 17 16
34 33 33 29 27 25 23 20 20 20 15 15 8 7 15 15 11 5 4 2 1 4 3 1 3 2 3 5 3 2 3 1 3 12 17 17 20 15 16 19 17 17 19
29 34 34 32 31 28 24 20 17 14 9 5 7 12 16 15 11 7 6 6 5 5 1 2 5 2 2 3 4 3 2 2 2 5 14 14 17 17 15 20 17 18 18
34 36 35 33 33 30 25 22 22 16 12 11 10 9 15 12 11 8 10 7 6 3 1 2 2 3 1 4 3 3 2 3 2 3 4 8 13 11 13 17 20 19 20
31 33 36 33 33 33 28 23 22 18 14 13 12 10 11 12 11 10 8 9 9 7 3 2 2 2 3 2 2 1 2 5 7 2 2 2 4 13 11 12 23 23 18
29 30 33 35 35 35 30 26 24 20 18 15 12 11 13 13 12 13 10 9 9 8 5 5 4 2 4 6 6 10 7 4 5 4 1 1 3 8 7 11 11 20 20
Wind_Direction
156 158 155 149 146 140 136 131 129 127 125 126 126 127 127 129 128 129 137 140 143 145 153 162 163 159 160 165 155 159 114 117 116 125 115 128 133 135 133 125 127 132 128
153 157 156 151 149 147 148 137 133 129 127 128 125 127 125 126 128 130 130 132 140 147 156 169 182 175 184 169 163 192 175 123 118 130 132 130 137 131 121 124 141 137 135
152 156 154 154 151 148 144 139 135 131 131 130 127 125 121 125 131 132 131 135 141 144 161 170 183 188 189 178 165 167 159 166 155 147 140 141 141 132 128 129 143 151 146
152 155 154 152 150 151 149 148 141 140 139 136 134 133 134 132 136 130 126 137 138 141 150 158 175 185 186 156 132 147 159 168 158 152 142 151 157 156 147 134 141 165 162
153 155 151 149 149 148 148 148 148 150 150 147 140 136 134 136 137 128 133 139 142 142 144 154 164 171 160 130 129 149 153 168 160 174 183 164 181 198 169 190 163 192 172
154 155 154 154 152 147 146 146 142 145 149 153 146 142 139 137 133 135 138 136 129 138 140 153 158 164 138 130 134 138 146 164 173 188 243 198 208 211 233 212 172 199 184
153 155 155 156 152 149 147 144 149 154 154 163 155 145 141 145 143 139 140 136 138 139 149 147 153 159 144 137 135 159 179 174 204 183 106 181 209 207 217 208 206 207 192
156 156 159 161 157 152 150 151 156 158 167 166 154 155 160 147 152 148 141 144 147 148 149 158 157 163 156 145 143 170 177 200 186 210 169 178 193 200 202 212 208 206 194
159 159 165 163 155 150 152 151 157 157 163 164 157 152 151 152 160 151 147 152 151 157 160 169 168 165 160 143 130 149 173 181 141 139 154 180 191 192 195 206 202 201 198
164 164 169 166 159 157 157 160 160 162 172 176 170 160 158 160 160 164 161 167 168 171 172 175 165 157 154 138 133 168 157 162 149 147 161 165 173 187 193 204 203 202 198
167 170 174 172 168 164 162 164 170 173 174 174 173 169 166 159 168 172 182 180 182 182 188 183 177 176 168 149 153 156 182 174 161 165 161 174 180 184 193 195 193 196 199
170 175 180 176 174 170 165 172 179 181 181 187 187 177 181 179 186 203 201 209 201 193 200 189 197 192 184 181 177 178 176 181 183 198 188 187 190 186 193 193 191 196 203
176 177 181 180 177 175 173 179 187 191 191 201 205 197 190 210 246 239 224 213 215 195 199 190 187 192 186 185 186 184 183 186 192 200 191 194 197 197 194 193 199 196 202
179 182 182 183 183 185 188 183 183 187 186 193 197 199 224 269 261 228 210 217 241 228 219 194 191 190 188 157 171 178 192 186 184 195 195 197 203 207 205 197 202 201 204
181 182 183 185 190 188 191 184 187 197 201 194 206 210 199 266 172 195 191 215 222 265 238 178 184 183 179 170 172 185 183 211 194 192 210 204 207 214 209 203 204 205 205
180 184 182 186 184 188 192 192 193 198 215 219 209 191 192 189 159 173 214 217 208 14 288 296 273 188 180 186 181 189 176 181 200 215 215 206 209 217 217 210 205 206 209
184 182 182 183 188 192 198 201 192 198 211 221 224 222 205 191 164 152 113 313 92 123 15 188 159 197 224 199 161 164 182 199 212 217 213 215 210 214 221 214 210 209 211
181 179 182 186 191 195 202 199 195 202 212 229 256 230 228 211 207 227 19 264 163 140 65 170 211 237 181 218 206 199 193 197 203 206 219 218 211 212 210 211 213 208 211
183 183 183 190 195 194 197 198 196 196 214 230 224 208 214 223 221 252 34 76 197 250 232 317 266 272 57 299 223 219 202 201 200 198 214 210 210 212 205 209 211 211 213
189 188 188 195 194 191 191 191 191 198 218 232 220 222 228 219 216 206 339 358 347 298 304 287 340 7 6 264 246 224 220 210 198 192 211 219 214 210 220 214 204 210 210
192 189 191 192 191 186 188 192 201 206 218 231 221 240 189 210 230 220 259 4 25 2 320 302 327 45 102 3 178 194 199 216 228 209 213 214 208 214 220 216 210 209 208
191 198 197 197 192 191 194 196 197 203 222 212 238 223 195 209 223 229 220 238 315 8 342 263 265 314 93 67 127 114 42 161 210 211 212 214 214 226 224 207 215 218 215
186 194 199 197 194 196 197 195 200 204 210 219 232 184 198 209 214 212 220 236 244 244 322 38 50 293 134 142 64 130 95 222 318 227 208 218 215 217 227 216 222 225 226
191 196 200 198 199 199 196 198 204 208 205 214 206 207 205 199 219 224 232 219 244 262 282 267 350 52 177 101 95 164 150 167 173 332 235 222 224 223 231 233 229 227 231
186 190 200 201 201 198 198 201 203 213 221 220 223 210 207 217 226 234 231 225 248 261 259 189 274 241 237 221 19 178 232 200 211 152 303 295 201 224 228 235 238 235 237
186 186 194 200 203 201 200 202 205 212 217 220 227 225 220 226 236 246 223 229 242 251 260 245 250 262 219 216 229 254 236 185 190 201 170 261 220 215 247 235 225 228 230